Home > Weather > Rockford > Past weeks

Flag for U.S.A. Weather for the Past 2 Weeks in Rockford, Illinois, U.S.A.

Now
14 °F

Passing clouds.


Feels Like: 1 °F
Forecast: 8 / 20 °F
Wind: 10 mph from Southeast

Location: Greater Rockford Airport

Current Time: Feb 14, 2016 at 4:27:43 AM

Latest Report: Feb 14, 2016 at 3:54 AM


Visibility: 10 mi

Pressure: 30.42 "Hg

Humidity: 58%

Dew point: 2 °F

Location of RockfordLocation

Historic Weather in Rockford — Graph

°F

Rockford Temperature Yesterday

Maximum temperature yesterday: 16 °F (at 2:54 PM)
Minimum temperature yesterday: 2 °F (at 5:54 AM)
Average temperature yesterday: 9 °F

High & Low Weather Summary for the Past Weeks

 TemperatureHumidityPressure
High45 °F (Feb 7, 1:54 PM)100% (Feb 1, 8:54 AM)30.68 "Hg (Feb 1, 8:54 AM)
Low2 °F (Feb 13, 5:54 AM)35% (Feb 13, 1:54 PM)29.49 "Hg (Feb 3, 12:54 AM)
Average26 °F73%30.05 "Hg
* Reported Jan 30 2:54 AM — Feb 14 2:54 AM, Rockford, Weather by CustomWeather, © 2016

Note: Actual official high and low records may vary slightly from our data, if they occured in-between our weather recording intervals... More about our weather records

Advertising

Rockford Weather History for the Previous 24 Hours

 ConditionsComfort  
Time TempWeatherWind HumidityBarometerVisibility
2:54 AM
Sun, Feb 14
13 °FPassing clouds.7 mph61%30.45 "Hg10 mi
1:54 AM12 °FPassing clouds.8 mph58%30.47 "Hg10 mi
12:54 AM12 °FMostly cloudy.7 mph58%30.47 "Hg10 mi
11:54 PM
Sat, Feb 13
11 °FMostly cloudy.7 mph56%30.49 "Hg10 mi
10:54 PM10 °FOvercast.7 mph61%30.50 "Hg10 mi
9:54 PM9 °FOvercast.No wind66%30.53 "Hg10 mi
8:54 PM9 °FPassing clouds.3 mph66%30.53 "Hg10 mi
7:54 PM10 °FPassing clouds.No wind61%30.55 "Hg10 mi
6:54 PM11 °FPassing clouds.No wind53%30.56 "Hg10 mi
5:54 PM12 °FPassing clouds.5 mph48%30.57 "Hg10 mi
4:54 PM13 °FScattered clouds.5 mph42%30.57 "Hg10 mi
3:54 PM16 °FScattered clouds.6 mph37%30.58 "Hg10 mi
2:54 PM16 °FScattered clouds.5 mph35%30.60 "Hg10 mi
1:54 PM15 °FPassing clouds.7 mph35%30.62 "Hg10 mi
12:54 PM14 °FPassing clouds.10 mph38%30.63 "Hg10 mi
11:54 AM13 °FPassing clouds.8 mph42%30.66 "Hg10 mi
10:54 AM10 °FPassing clouds.10 mph43%30.68 "Hg10 mi
9:54 AM8 °FSunny.10 mph47%30.68 "Hg10 mi
8:54 AM5 °FPassing clouds.12 mphN/A30.67 "Hg10 mi
7:54 AM3 °FSunny.10 mphN/A30.66 "Hg10 mi
6:54 AM2 °FClear.9 mph54%30.66 "Hg10 mi
5:54 AM2 °FClear.10 mph54%30.64 "Hg10 mi
4:54 AM3 °FClear.8 mphN/A30.63 "Hg10 mi
Weather by CustomWeather, © 2016

See weather overviewHow to use our weather pages